Hourly Data Report for April 11, 2021

NANAIMO A
BRITISH COLUMBIA
Current Station Operator: NAVCAN

49°03'16.000" N
123°52'12.000" W
28.00 m
1025365
YCD

Download Data

Hourly Data (April 2021)
Hourly Data Report for April 11, 2021
TIME
LST
Temp Definition
°C
Dew Point Definition
°C
Rel Hum Definition
%
Precip. Amount Definition
mm

Wind Dir Definition
10's deg

Wind Spd Definition
km/h
Visibility Definition
km
Stn Press Definition
kPa
Hmdx Definition


Wind Chill Definition


Weather Definition


00:00 2.1 -4.1 64 LegendMM 27 8 LegendMM 102.48     LegendNANA
01:00 1.1 -3.9 69 LegendMM 27 9 LegendMM 102.52     LegendNANA
02:00 -0.9 -4.2 78 LegendMM 27 8 LegendMM 102.52   -4 LegendNANA
03:00 0.9 -4.0 69 LegendMM 28 10 LegendMM 102.54     LegendNANA
04:00 0.2 -3.9 74 LegendMM 26 9 LegendMM 102.58     LegendNANA
05:00 0.1 -3.9 74 LegendMM 25 10 LegendMM 102.59     LegendNANA
06:00 0.0 -4.2 74 LegendMM 26 10 LegendMM 102.64   -3 LegendNANA
07:00 2.9 -3.5 63 LegendMM 27 12 LegendMM 102.68     LegendNANA
08:00 5.7 -2.7 55 LegendMM 28 10 LegendMM 102.65     LegendNANA
09:00 7.7 -0.8 55 LegendMM 1 19 LegendMM 102.63     LegendNANA
10:00 7.4 -0.8 56 LegendMM 3 23 LegendMM 102.66     LegendNANA
11:00 7.6 -1.2 54 LegendMM 5 15 LegendMM 102.67     LegendNANA
12:00 8.9 -0.6 51 LegendMM 1 13 LegendMM 102.65     LegendNANA
13:00 9.3 -2.8 42 LegendMM 36 19 LegendMM 102.61     LegendNANA
14:00 10.3 -2.8 40 LegendMM 36 19 LegendMM 102.59     LegendNANA
15:00 10.6 -4.3 35 LegendMM 1 20 LegendMM 102.53     LegendNANA
16:00 10.7 -6.2 30 LegendMM 36 21 LegendMM 102.50     LegendNANA
17:00 10.7 -6.8 29 LegendMM 34 16 LegendMM 102.46     LegendNANA
18:00 9.3 -4.0 39 LegendMM 1 13 LegendMM 102.45     LegendNANA
19:00 8.1 -4.4 41 LegendMM 34 10 LegendMM 102.44     LegendNANA
20:00 4.7 -2.8 58 LegendMM 26 11 LegendMM 102.48     LegendNANA
21:00 3.2 -2.8 65 LegendMM 27 10 LegendMM 102.52     LegendNANA
22:00 3.4 -3.2 62 LegendMM 27 12 LegendMM 102.53     LegendNANA
23:00 3.1 -3.3 63 LegendMM 27 10 LegendMM 102.51     LegendNANA

Notes on Data Quality.

Legend

  • E = Estimated
  • M = Missing
  • NA = Not Available*
  • [empty] = Indicates an unobserved value
Date modified: